Regional Weather Roundup
Issued by NWS Wakefield, VA

Home | Current Version | Previous Version | Graphics & Text | Print | Product List | Glossary On
Versions: 1 2 3 4 5 6 7 8 9 10 11 12 13 14 15 16 17 18 19 20 21 22 23 24 25 26 27 28
000
ASUS41 KAKQ 241115
RWRAKQ

REGIONAL WEATHER ROUNDUP
NATIONAL WEATHER SERVICE WAKEFIELD VA
700 AM EDT FRI MAR 24 2017

Note: "fair" indicates few or no clouds below 12,000 feet with no
significant weather and/or obstructions to visibility. * = Denotes
station may not report precipitation (e.g., rain,snow,etc.),
thunder or fog.

VAZ042-051-052>054-056-241200-
NORTHERN VIRGINIA

CITY           SKY/WX    TMP DP  RH WIND       PRES   REMARKS
WASH NATIONAL  MOCLDY    38  26  62 S18       30.46F
DULLES         MOCLDY    35  23  61 S12       30.42F
FORT BELVOIR   PTCLDY    35  24  63 S7        30.46F
QUANTICO       MOCLDY    38  29  70 SW18G24   30.49F
FREDERICKSBRG* CLOUDY    33  27  79 S5        30.47F
STAFFORD*      PTCLDY    32  25  76 S6        30.51S
WARRENTON      MOCLDY    37  24  58 S8        30.43S
CULPEPER*      CLOUDY    37  27  65 S8        30.44R
MANASSAS*      MOCLDY    34  25  69 S10       30.45F
LEESBURG*      PTCLDY    36  28  75 S12       30.43R
WINCHESTER     CLOUDY    36  19  51 S6        30.35R
FRONT ROYAL*     N/A    N/A N/A N/A MISG        N/A
LURAY*         CLOUDY    43  27  52 SW8       30.36S
$$

VAZ048-049-060>072-079>083-241200-
CENTRAL AND SOUTH CENTRAL VIRGINIA

CITY           SKY/WX    TMP DP  RH WIND       PRES   REMARKS
RICHMOND       CLOUDY    33  27  78 S7        30.50F
CHESTERFIELD*  FAIR      32  12  43 S6        30.51F
PETERSBURG*    CLEAR     29  26  86 CALM      30.52S
HANOVER        PTCLDY    34  24  67 S7        30.51S
TAPPAHANNOCK*  PTCLDY    32  13  46 S6        30.51S
QUINTON*       FAIR      32  28  84 S6        30.51S
CHARLOTTSVILLE PTCLDY    38  22  52 S16       30.42F
GORDONSVILLE*  SUNNY     32  24  71 W3        30.44S
ORANGE*        CLOUDY    34  25  69 S8        30.45S
LOUISA*        MOCLDY    37  28  70 S7        30.44S
BUMPASS*       FAIR      33  26  77 S6        30.47F
FARMVILLE*     CLEAR     34  29  82 S5        30.47F
CREWE*         FAIR      34  30  87 S6        30.49S
FORT PICKETT*  FAIR      30  26  86 S7        30.50R
CHASE CITY*    FAIR      35  29  79 S5        30.50S
CLARKSVILLE*   FAIR      34  30  86 S3        30.50S
SOUTH HILL*    CLEAR     31  28  90 S6        30.56S
LAWRENCEVILLE* FAIR      31  26  83 CALM      30.51S
EMPORIA*       CLEAR     28  27  93 CALM      30.54F
$$

VAZ088>098-241200-
SOUTHEAST VIRGINIA

CITY           SKY/WX    TMP DP  RH WIND       PRES   REMARKS
NORFOLK        CLEAR     34  28  79 S6        30.53S
VIRGINIA BEACH CLEAR     29  24  82 CALM      30.53S
NORFOLK NAVAL  CLEAR     35  28  75 S6        30.54F
WEST POINT*    CLEAR     33  26  73 S6        30.54S
SALUDA*        FAIR      31  27  84 CALM      30.52S
NEWPORT NEWS   CLEAR     31  27  85 W3        30.53F
LANGLEY AFB    CLEAR     35  31  83 S3        30.52F
FORT EUSTIS    CLEAR     36  28  72 S6        30.51S
WILLIAMSBURG*  CLEAR     36  30  80 CALM      30.54S
HR EXEC AP*    FAIR      25  21  86 CALM      30.53F
FRANKLIN*      CLEAR     28  25  90 CALM      30.55S
US460-WAKEFLD  CLEAR     28  26  92 CALM      30.53F
$$

VAZ020-022-025-037-045-241200-
WEST CENTRAL AND SOUTHWEST VIRGINIA

CITY           SKY/WX    TMP DP  RH WIND       PRES   REMARKS
STAUNTON*      CLOUDY    35  23  62 SW5       30.39F
WAYNESBORO*    CLOUDY    36  24  61 CALM      30.37S
HOT SPRINGS VA CLOUDY    39  19  45 SW13G20   30.33R
LYNCHBURG      PTCLDY    35  26  69 S9        30.46S
DANVILLE       PTCLDY    32  29  88 CALM      30.50S
SOUTH BOSTON*  FAIR      32  27  80 CALM      30.51R
MARTINSVILLE   CLOUDY    37  28  68 S5        30.48F
ROANOKE        CLOUDY    40  24  53 SE3       30.45S
BLACKSBURG     CLOUDY    43  26  52 CALM      30.42S
DUBLIN*        CLOUDY    40  31  72 CALM      30.41R
MARION*        CLOUDY    43  27  52 CALM      30.40S
HILLSVILLE*    CLOUDY    42  26  52 S13G18    30.38F
RICHLANDS*     CLOUDY    49  32  51 CALM      30.34R
WISE*          MOCLDY    50  32  50 S7        30.35R
ABINGDON*      CLOUDY    47  30  50 CALM      30.37S
$$

MDZ021>025-VAZ099-100-241200-
SOUTHERN MARYLAND AND THE DELMARVA PENINSULA

CITY           SKY/WX    TMP DP  RH WIND       PRES   REMARKS
PATUXENT RIVER CLOUDY    36  28  73 S10       30.50S
BAY BRIDGE APT CLOUDY    39  28  65 S13G21    30.46F
LEONARDTOWN    PTCLDY    34  27  75 S6        30.51F
DOVER          CLOUDY    33  28  80 S9        30.49S
GEORGETOWN     CLOUDY    31  25  78 S6        30.51F
EASTON         NOT AVBL
CAMBRIDGE      CLEAR     37  30  75 VRB6G14   30.50S
SALISBURY      CLOUDY    29  24  82 CALM      30.52F
OCEAN CITY     PTCLDY    40  29  64 SW7       30.52F
WALLOPS ISLAND CLOUDY    39  29  67 S13       30.53F
ACCOMACK*      CLEAR     35  28  77 S3        30.53S
$$

NCZ012>017-030>032-241200-
NORTH CENTRAL AND EASTERN NORTH CAROLINA

CITY           SKY/WX    TMP DP  RH WIND       PRES   REMARKS
ROANOKE RAPIDS FAIR      30  28  93 CALM      30.52F
RALEIGH        PTCLDY    37  29  72 S3        30.52S
ELIZABETH CITY CLEAR     32  30  92 S3        30.55S
AHOSKIE*         N/A     27  26  94 CALM      30.55S
EDENTON*       CLEAR     38  34  87 CALM      30.55F
CURRITUCK*     CLEAR     33  33 100 CALM      30.55S
KILL DEVIL HLS NOT AVBL
MANTEO         CLEAR     34  32  92 CALM      30.55F
CAPE HATTERAS  CLEAR     45  39  79 NE8       30.54R
TARBORO*       NOT AVBL
GOLDSBORO      CLEAR     32  32  99 CALM      30.52S
WASHINGTON     CLEAR     31  28  89 CALM      30.55S
GREENVILLE     CLEAR     32  30  93 CALM      30.54R
NEW BERN       CLEAR     35  33  92 CALM      30.56R
WILMINGTON     CLEAR     35  32  88 NE3       30.53R
$$

VAZ048-241200-
ELSEWHERE

CITY           SKY/WX    TMP DP  RH WIND       PRES   REMARKS
HARRISBURG PA  CLOUDY    36  22  56 SE6       30.39F
BALTIMORE      CLOUDY    34  25  69 S6        30.44F
ANNAPOLIS      CLOUDY    38  24  57 S10       30.46F
ANDREWS AFB    PTCLDY    34  21  59 S12       30.44F
PHILADELPHIA   CLOUDY    33  24  69 S7        30.49F
HENDERSON NC   CLEAR     32  28  83 S6        30.51R
GREENSBORO     PTCLDY    37  30  75 SW5       30.49R
ROCKY MOUNT    CLEAR     30  30 100 CALM      30.54S
$$

VAZ100-241200-
MARINE

STATION/POSITION TIME  TEMP    WIND        PRES    WAVE   SWELL
                       AIR SEA DIR/SP/G            HT/PER HT/PER
                 (UTC) (F)     (DEG/KT/KT) (MB)    (FT/S) (FT/S)
CAPE MAY NJ      1042   38 42  170/  4/  6 1033.0F
LEWES DE         1048   37 42  190/  5/  9 1033.1F
OCEAN-CITY-INLET 1048   42 42  210/ 14/ 18 1033.9F
WACHAPREAGUE VA  1048   42 45  210/  8/ 10 1033.4F
THOMAS POINT MD  1100   39 43  200/ 23/ 26   N/A
GOOSES REEF MD   1100   39 43  200/ 16/ 17 1032.8    2/ 3
COVE POINT MD    1048   38     210/ 16/ 18 1033.3F
SOLOMONS ISLAND  1048   37 44  200/ 11/ 13   N/A
BISHOPS HEAD MD  1048   41 42  180/ 14/ 16 1033.1F
PINEY POINT MD   1048          210/  9/ 10   N/A
POTOMAC MD       1100   38 45  220/ 10/ 14 1032.6    1/ 2
CAMBRIDGE MD     1048   38 44  180/  6/ 10 1032.1F
LEWISETTA VA     1048   36 46  230/ 10/ 13 1032.8F
RAPPAHANNOCK LGT 1048          170/ 13/ 14 1034.1F
STINGRAY PT      1050   40     210/ 12/ 14 1033.4F
YORK RVR RNG VA  1048   40     190/ 11/ 12 1032.9F
YORKTOWN VA      1048   35 47   CALM  /  2 1033.5F
JAMESTOWN VA     1100   34 49  160/  6/  8   N/A     0
DOMINION TERM VA 1048   38     180/  7/  8 1033.8F
KIPTOPEKE VA     1048      45  170/ 11/ 14   N/A
CHES BAY BRIDGE  1036   39 47  190/  9/ 10 1033.7F
CAPE HENRY VA    1036   39     180/  6/  8   N/A
WILLOUBY STN VA  1036   38     190/  7/  8 1034.6F
S CRANEY ISL VA  1036   37     190/  7/  8 1033.8F
CAPE HENRY BUOY  1042      45                N/A     3/ 6
CAPE CHARLES BUO 1051      45                N/A     3/ 9
OFFSHORE WE BUOY 1051      45                N/A     3/ 8
64NM E OF VA BCH 1050   46 48  130/  2/  4 1034.5R   4/ 9   3/ 9
DUCK PIER NC     1036   44 47  110/  6/  7 1033.9S
44100 DUCK FRF   1035      47                N/A     3/ 9   2/11
44056 DUCK FRF   1030      47                N/A     3/ 7   2/11
OREGON INLET NC  1036   44 49   50/  5/  8 1034.4R
HATTERAS NC      1036   46 51   40/  6/  8 1033.6R
DIAMOND SHLS NC  1050   58 74  170/ 10/ 16 1034.1R   6/11   5/11
CAPE LOOKOUT NC  1100   47     360/  8/ 11 1033.5R
$$




USA.gov is the U.S. government's official web portal to all federal, state and local government web resources and services.